| time (UTC) | temp C | wind direction | speed KPH | gust KPH | rain 1hr cm | rain 24hr cm | rain mn cm | humidity % | barometer mb |
| 20260507213005 | 16 | 313 | 19.3 | 30.6 | 0.00 | 0.00 | 0.00 | 32 | 1013.3 |
| 20260507212503 | 16 | 291 | 19.3 | 30.6 | 0.00 | 0.00 | 0.00 | 32 | 1013.4 |
| 20260507212005 | 16 | 286 | 16.1 | 35.4 | 0.00 | 0.00 | 0.00 | 32 | 1013.4 |
| 20260507211504 | 16 | 298 | 20.9 | 35.4 | 0.00 | 0.00 | 0.00 | 30 | 1013.4 |
| 20260507211502 | 16 | 298 | 20.9 | 35.4 | 0.00 | 0.00 | 0.00 | 30 | 1011.6 |
| 20260507210503 | 16 | 284 | 20.9 | 32.2 | 0.00 | 0.00 | 0.00 | 30 | 1013.5 |
| 20260507210006 | 16 | 292 | 20.9 | 27.4 | 0.00 | 0.00 | 0.00 | 31 | 1013.4 |
| 20260507210004 | 16 | 292 | 19.3 | 27.4 | 0.00 | 0.00 | 0.00 | 31 | 1011.8 |
| 20260507205504 | 16 | 294 | 17.7 | 30.6 | 0.00 | 0.15 | 0.00 | 33 | 1013.4 |
| 20260507204504 | 16 | 300 | 24.1 | 35.4 | 0.00 | 0.15 | 0.00 | 30 | 1013.6 |
| 20260507204502 | 16 | 300 | 24.1 | 35.4 | 0.00 | 0.15 | 0.00 | 30 | 1012.1 |
| 20260507203003 | 16 | 288 | 17.7 | 30.6 | 0.00 | 0.15 | 0.00 | 31 | 1012.5 |
| 20260507202504 | 16 | 284 | 9.7 | 24.1 | 0.00 | 0.15 | 0.00 | 37 | 1013.9 |
| 20260507202008 | 16 | 263 | 14.5 | 24.1 | 0.00 | 0.15 | 0.00 | 32 | 1014.0 |
| 20260507201512 | 16 | 294 | 8.0 | 24.1 | 0.00 | 0.15 | 0.00 | 35 | 1012.8 |
| 20260507201507 | 16 | 294 | 9.7 | 24.1 | 0.00 | 0.15 | 0.00 | 35 | 1014.0 |
| 20260507201004 | 16 | 273 | 12.9 | 24.1 | 0.00 | 0.15 | 0.00 | 34 | 1014.2 |
| 20260507200506 | 16 | 292 | 14.5 | 30.6 | 0.00 | 0.15 | 0.00 | 35 | 1014.2 |
| 20260507200009 | 16 | 259 | 19.3 | 30.6 | 0.00 | 0.15 | 0.00 | 32 | 1013.3 |
| 20260507200007 | 16 | 259 | 20.9 | 30.6 | 0.00 | 0.15 | 0.00 | 32 | 1014.2 |
| 20260507195509 | 16 | 296 | 8.0 | 17.7 | 0.00 | 0.58 | 0.00 | 35 | 1014.2 |
| 20260507195006 | 16 | 306 | 6.4 | 17.7 | 0.00 | 0.58 | 0.00 | 32 | 1014.2 |
| 20260507194506 | 16 | 263 | 4.8 | 16.1 | 0.00 | 0.58 | 0.00 | 33 | 1014.3 |
| 20260507194006 | 16 | 244 | 6.4 | 17.7 | 0.00 | 0.58 | 0.00 | 33 | 1014.4 |
| 20260507193505 | 15 | 269 | 8.0 | 20.9 | 0.00 | 0.58 | 0.00 | 32 | 1014.5 |
| 20260507193008 | 15 | 305 | 12.9 | 20.9 | 0.00 | 0.58 | 0.00 | 35 | 1013.8 |
| 20260507192506 | 15 | 246 | 9.7 | 19.3 | 0.00 | 0.58 | 0.00 | 32 | 1014.5 |
| 20260507192005 | 15 | 244 | 9.7 | 24.1 | 0.00 | 0.58 | 0.00 | 32 | 1014.6 |
| 20260507191506 | 15 | 284 | 9.7 | 24.1 | 0.00 | 0.58 | 0.00 | 38 | 1014.6 |
| 20260507191503 | 15 | 284 | 8.0 | 24.1 | 0.00 | 0.58 | 0.00 | 38 | 1014.2 |
| 20260507191006 | 15 | 326 | 9.7 | 22.5 | 0.00 | 0.58 | 0.00 | 38 | 1014.6 |
| 20260507190507 | 15 | 285 | 8.0 | 22.5 | 0.00 | 0.58 | 0.00 | 37 | 1014.7 |
| 20260507190006 | 15 | 306 | 11.3 | 20.9 | 0.00 | 0.58 | 0.00 | 35 | 1014.8 |
| 20260507190004 | 15 | 306 | 11.3 | 20.9 | 0.00 | 0.58 | 0.00 | 35 | 1014.6 |
| 20260507185506 | 15 | 300 | 9.7 | 17.7 | 0.00 | 0.94 | 0.00 | 36 | 1014.9 |
| 20260507185006 | 15 | 301 | 6.4 | 17.7 | 0.00 | 0.94 | 0.00 | 31 | 1014.9 |
| 20260507184507 | 15 | 308 | 8.0 | 17.7 | 0.00 | 0.94 | 0.00 | 27 | 1015.0 |
| 20260507184504 | 15 | 308 | 6.4 | 17.7 | 0.00 | 0.94 | 0.00 | 27 | 1014.9 |
| 20260507184006 | 15 | 267 | 12.9 | 17.7 | 0.00 | 0.94 | 0.00 | 29 | 1015.0 |
| 20260507183505 | 15 | 226 | 6.4 | 16.1 | 0.00 | 0.94 | 0.00 | 33 | 1015.0 |
| 20260507183007 | 15 | 302 | 8.0 | 16.1 | 0.00 | 0.94 | 0.00 | 34 | 1015.0 |
| 20260507183003 | 15 | 302 | 8.0 | 16.1 | 0.00 | 0.94 | 0.00 | 34 | 1015.0 |
| 20260507182506 | 15 | 187 | 4.8 | 12.9 | 0.00 | 0.94 | 0.00 | 38 | 1015.1 |
| 20260507182007 | 15 | 309 | 4.8 | 12.9 | 0.00 | 0.94 | 0.00 | 34 | 1015.0 |
| 20260507181507 | 14 | 234 | 4.8 | 14.5 | 0.00 | 0.94 | 0.00 | 40 | 1015.2 |
| 20260507181504 | 14 | 234 | 4.8 | 14.5 | 0.00 | 0.94 | 0.00 | 40 | 1015.2 |
| 20260507181007 | 14 | 273 | 6.4 | 16.1 | 0.00 | 0.94 | 0.00 | 38 | 1015.2 |
| 20260507180506 | 14 | 215 | 6.4 | 12.9 | 0.00 | 0.94 | 0.00 | 36 | 1015.2 |
| 20260507180006 | 13 | 252 | 4.8 | 12.9 | 0.00 | 0.94 | 0.00 | 38 | 1015.3 |
| 20260507180003 | 13 | 252 | 4.8 | 12.9 | 0.00 | 0.94 | 0.00 | 38 | 1015.5 |
| 20260507175506 | 13 | 252 | 3.2 | 16.1 | 0.00 | 0.99 | 0.00 | 41 | 1015.3 |
| 20260507175005 | 13 | 263 | 8.0 | 16.1 | 0.00 | 0.99 | 0.00 | 38 | 1015.3 |
| 20260507174508 | 13 | 286 | 6.4 | 14.5 | 0.00 | 0.99 | 0.00 | 46 | 1015.4 |
| 20260507174505 | 13 | 286 | 6.4 | 14.5 | 0.00 | 0.99 | 0.00 | 46 | 1015.7 |
| 20260507174006 | 13 | 306 | 8.0 | 14.5 | 0.00 | 0.99 | 0.00 | 44 | 1015.5 |
| 20260507173506 | 13 | 297 | 6.4 | 14.5 | 0.00 | 0.99 | 0.00 | 47 | 1015.5 |
| 20260507173004 | 12 | 248 | 4.8 | 14.5 | 0.00 | 0.99 | 0.00 | 47 | 1016.0 |
| 20260507172506 | 12 | 239 | 6.4 | 16.1 | 0.00 | 0.99 | 0.00 | 48 | 1015.7 |
| 20260507172006 | 12 | 252 | 6.4 | 16.1 | 0.00 | 0.99 | 0.00 | 46 | 1015.7 |
| 20260507171505 | 12 | 265 | 4.8 | 16.1 | 0.00 | 0.99 | 0.00 | 46 | 1015.7 |
| 20260507171007 | 12 | 278 | 4.8 | 16.1 | 0.00 | 0.99 | 0.00 | 44 | 1015.7 |
| 20260507170506 | 12 | 236 | 6.4 | 17.7 | 0.00 | 0.99 | 0.00 | 45 | 1015.7 |
| 20260507170007 | 11 | 244 | 9.7 | 17.7 | 0.00 | 0.99 | 0.00 | 43 | 1015.8 |
| 20260507170005 | 11 | 244 | 8.0 | 17.7 | 0.00 | 0.99 | 0.00 | 43 | 1016.6 |
| 20260507165506 | 11 | 251 | 6.4 | 14.5 | 0.00 | 0.99 | 0.00 | 45 | 1015.9 |
| 20260507164506 | 11 | 170 | 6.4 | 19.3 | 0.00 | 0.99 | 0.00 | 46 | 1016.0 |
| 20260507164504 | 11 | 170 | 6.4 | 19.3 | 0.00 | 0.99 | 0.00 | 46 | 1016.8 |
| 20260507164006 | 11 | 227 | 6.4 | 19.3 | 0.00 | 0.99 | 0.00 | 47 | 1016.0 |
| 20260507163506 | 11 | 275 | 6.4 | 14.5 | 0.00 | 0.99 | 0.00 | 50 | 1016.0 |
| 20260507163007 | 11 | 265 | 8.0 | 16.1 | 0.00 | 0.99 | 0.00 | 50 | 1016.1 |
| 20260507163004 | 11 | 265 | 6.4 | 16.1 | 0.00 | 0.99 | 0.00 | 50 | 1017.0 |
| 20260507162006 | 10 | 284 | 8.0 | 16.1 | 0.00 | 0.99 | 0.00 | 51 | 1016.1 |
| 20260507161505 | 10 | 245 | 3.2 | 14.5 | 0.00 | 0.99 | 0.00 | 52 | 1017.3 |
| 20260507161008 | 10 | 251 | 4.8 | 12.9 | 0.00 | 0.99 | 0.00 | 53 | 1016.3 |
| 20260507160506 | 9 | 262 | 6.4 | 12.9 | 0.00 | 0.99 | 0.00 | 52 | 1016.3 |
| 20260507160005 | 9 | 271 | 6.4 | 16.1 | 0.00 | 0.99 | 0.00 | 51 | 1017.5 |
| 20260507155506 | 8 | 252 | 6.4 | 16.1 | 0.00 | 1.02 | 0.00 | 52 | 1016.3 |
| 20260507155007 | 8 | 259 | 4.8 | 14.5 | 0.00 | 1.02 | 0.00 | 52 | 1016.3 |
| 20260507154504 | 8 | 257 | 4.8 | 17.7 | 0.00 | 1.02 | 0.00 | 54 | 1016.4 |
| 20260507154502 | 8 | 257 | 3.2 | 17.7 | 0.00 | 1.02 | 0.00 | 54 | 1017.7 |
| 20260507154008 | 8 | 223 | 6.4 | 17.7 | 0.00 | 1.02 | 0.00 | 52 | 1016.4 |
| 20260507153507 | 8 | 259 | 8.0 | 14.5 | 0.00 | 1.02 | 0.00 | 53 | 1016.3 |
| 20260507153007 | 8 | 288 | 8.0 | 14.5 | 0.00 | 1.02 | 0.00 | 52 | 1016.2 |
| 20260507153003 | 8 | 288 | 6.4 | 14.5 | 0.00 | 1.02 | 0.00 | 52 | 1017.6 |
| 20260507152506 | 7 | 209 | 9.7 | 14.5 | 0.00 | 1.02 | 0.00 | 52 | 1016.2 |
| 20260507152007 | 7 | 257 | 8.0 | 17.7 | 0.00 | 1.02 | 0.00 | 53 | 1016.1 |
| 20260507151506 | 7 | 263 | 6.4 | 14.5 | 0.00 | 1.02 | 0.00 | 55 | 1016.1 |
| 20260507151005 | 7 | 240 | 8.0 | 14.5 | 0.00 | 1.02 | 0.00 | 55 | 1016.2 |
| 20260507150505 | 7 | 210 | 4.8 | 11.3 | 0.00 | 1.02 | 0.00 | 56 | 1016.3 |
| 20260507150007 | 6 | 269 | 6.4 | 12.9 | 0.00 | 1.02 | 0.00 | 55 | 1016.3 |
| 20260507145507 | 6 | 284 | 6.4 | 12.9 | 0.00 | 1.02 | 0.00 | 56 | 1016.1 |
| 20260507145007 | 6 | 258 | 4.8 | 16.1 | 0.00 | 1.02 | 0.00 | 57 | 1016.1 |
| 20260507144505 | 6 | 246 | 6.4 | 16.1 | 0.00 | 1.02 | 0.00 | 56 | 1016.2 |
| 20260507144006 | 6 | 263 | 3.2 | 14.5 | 0.00 | 1.02 | 0.00 | 58 | 1016.1 |
| 20260507143504 | 6 | 251 | 3.2 | 14.5 | 0.00 | 1.02 | 0.00 | 58 | 1016.2 |
| 20260507143006 | 5 | 252 | 6.4 | 16.1 | 0.00 | 1.02 | 0.00 | 57 | 1016.2 |
| 20260507143003 | 5 | 252 | 6.4 | 16.1 | 0.00 | 1.02 | 0.00 | 57 | 1017.9 |
| 20260507142506 | 5 | 234 | 6.4 | 16.1 | 0.00 | 1.02 | 0.00 | 57 | 1016.3 |
| 20260507142007 | 5 | 277 | 4.8 | 14.5 | 0.00 | 1.02 | 0.00 | 57 | 1016.2 |
| 20260507141506 | 5 | 263 | 6.4 | 16.1 | 0.00 | 1.02 | 0.00 | 57 | 1016.2 |
| 20260507141504 | 5 | 263 | 4.8 | 16.1 | 0.00 | 1.02 | 0.00 | 57 | 1018.0 |
| 20260507141007 | 5 | 257 | 6.4 | 16.1 | 0.00 | 1.02 | 0.00 | 56 | 1016.2 |
| 20260507140505 | 5 | 270 | 4.8 | 16.1 | 0.00 | 1.02 | 0.00 | 58 | 1016.1 |
| 20260507140006 | 4 | 247 | 6.4 | 14.5 | 0.00 | 1.02 | 0.00 | 58 | 1016.1 |
| 20260507140001 | 4 | 247 | 4.8 | 14.5 | 0.00 | 1.02 | 0.00 | 58 | 1018.1 |
| 20260507135506 | 4 | 223 | 4.8 | 11.3 | 0.00 | 1.02 | 0.00 | 57 | 1016.1 |
| 20260507135006 | 4 | 212 | 4.8 | 11.3 | 0.00 | 1.02 | 0.00 | 58 | 1016.2 |
| 20260507134510 | 3 | 240 | 4.8 | 11.3 | 0.00 | 1.02 | 0.00 | 59 | 1018.3 |
| 20260507134506 | 3 | 240 | 4.8 | 11.3 | 0.00 | 1.02 | 0.00 | 59 | 1016.2 |
| 20260507134007 | 3 | 261 | 3.2 | 11.3 | 0.00 | 1.02 | 0.00 | 60 | 1016.1 |
| 20260507133506 | 3 | 221 | 4.8 | 12.9 | 0.00 | 1.02 | 0.00 | 60 | 1016.1 |
| 20260507133006 | 3 | 234 | 6.4 | 14.5 | 0.00 | 1.02 | 0.00 | 60 | 1016.0 |
| 20260507133004 | 3 | 234 | 4.8 | 14.5 | 0.00 | 1.02 | 0.00 | 60 | 1018.2 |
| 20260507132505 | 3 | 254 | 6.4 | 14.5 | 0.00 | 1.02 | 0.00 | 60 | 1016.0 |
| 20260507132006 | 2 | 254 | 4.8 | 16.1 | 0.00 | 1.02 | 0.00 | 59 | 1015.9 |
| 20260507131506 | 2 | 238 | 6.4 | 16.1 | 0.00 | 1.02 | 0.00 | 60 | 1015.9 |
| 20260507131504 | 2 | 238 | 4.8 | 16.1 | 0.00 | 1.02 | 0.00 | 60 | 1018.2 |
| 20260507131000 | 2 | 200 | 6.4 | 16.1 | 0.00 | 1.02 | 0.00 | 61 | 1015.9 |
| 20260507130006 | 2 | 255 | 6.4 | 14.5 | 0.00 | 1.02 | 0.00 | 60 | 1015.8 |
| 20260507130004 | 2 | 255 | 6.4 | 14.5 | 0.00 | 1.02 | 0.00 | 60 | 1018.2 |
| 20260507125506 | 2 | 208 | 6.4 | 12.9 | 0.00 | 1.02 | 0.00 | 60 | 1015.7 |
| 20260507125006 | 1 | 229 | 6.4 | 12.9 | 0.00 | 1.02 | 0.00 | 62 | 1015.7 |
| 20260507124512 | 1 | 262 | 6.4 | 11.3 | 0.00 | 1.02 | 0.00 | 61 | 1017.9 |
| 20260507124506 | 1 | 262 | 6.4 | 11.3 | 0.00 | 1.02 | 0.00 | 61 | 1015.5 |
| 20260507124006 | 1 | 234 | 4.8 | 8.0 | 0.00 | 1.02 | 0.00 | 63 | 1015.4 |
| 20260507123505 | 0 | 241 | 3.2 | 8.0 | 0.00 | 1.02 | 0.00 | 64 | 1015.4 |
| 20260507123006 | 0 | 200 | 3.2 | 9.7 | 0.00 | 1.02 | 0.00 | 64 | 1017.7 |
| 20260507122506 | 0 | 211 | 4.8 | 9.7 | 0.00 | 1.02 | 0.00 | 65 | 1015.3 |
| 20260507122005 | 0 | 222 | 4.8 | 8.0 | 0.00 | 1.02 | 0.00 | 65 | 1015.3 |
| 20260507121503 | 0 | 225 | 3.2 | 8.0 | 0.00 | 1.02 | 0.00 | 65 | 1017.7 |
| 20260507121008 | 0 | 196 | 4.8 | 11.3 | 0.00 | 1.02 | 0.00 | 65 | 1015.3 |
| 20260507120015 | 0 | 234 | 3.2 | 9.7 | 0.00 | 1.02 | 0.00 | 65 | 1017.7 |
| 20260507120008 | 0 | 234 | 4.8 | 9.7 | 0.00 | 1.02 | 0.00 | 65 | 1015.3 |
| 20260507115506 | 0 | 179 | 6.4 | 9.7 | 0.00 | 1.02 | 0.00 | 65 | 1015.2 |
| 20260507115006 | 0 | 178 | 4.8 | 9.7 | 0.00 | 1.02 | 0.00 | 65 | 1015.2 |
| 20260507114505 | 0 | 225 | 3.2 | 8.0 | 0.00 | 1.02 | 0.00 | 65 | 1015.2 |
| 20260507114503 | 0 | 225 | 3.2 | 8.0 | 0.00 | 1.02 | 0.00 | 65 | 1017.6 |
| 20260507114006 | 0 | 225 | 3.2 | 8.0 | 0.00 | 1.02 | 0.00 | 65 | 1015.3 |
| 20260507113505 | 0 | 220 | 3.2 | 8.0 | 0.00 | 1.02 | 0.00 | 65 | 1015.2 |
| 20260507113017 | 0 | 241 | 3.2 | 8.0 | 0.00 | 1.02 | 0.00 | 65 | 1017.6 |
| 20260507113007 | 0 | 241 | 3.2 | 8.0 | 0.00 | 1.02 | 0.00 | 65 | 1015.2 |
| 20260507112505 | 0 | 215 | 3.2 | 8.0 | 0.00 | 1.02 | 0.00 | 65 | 1015.2 |
| 20260507111506 | 0 | 196 | 3.2 | 8.0 | 0.00 | 1.02 | 0.00 | 65 | 1015.1 |
| 20260507111504 | 0 | 196 | 1.6 | 8.0 | 0.00 | 1.02 | 0.00 | 65 | 1017.5 |
| 20260507110507 | 0 | 232 | 6.4 | 11.3 | 0.00 | 1.02 | 0.00 | 64 | 1015.1 |
| 20260507110010 | 0 | 237 | 6.4 | 14.5 | 0.00 | 1.02 | 0.00 | 64 | 1017.7 |
| 20260507110006 | 0 | 237 | 6.4 | 14.5 | 0.00 | 1.02 | 0.00 | 64 | 1015.2 |
| 20260507105505 | 0 | 236 | 6.4 | 14.5 | 0.00 | 1.02 | 0.00 | 65 | 1015.2 |
| 20260507105006 | 0 | 264 | 3.2 | 11.3 | 0.00 | 1.02 | 0.00 | 65 | 1015.2 |
| 20260507104506 | 0 | 225 | 4.8 | 9.7 | 0.00 | 1.02 | 0.00 | 65 | 1015.2 |
| 20260507104503 | 0 | 225 | 4.8 | 9.7 | 0.00 | 1.02 | 0.00 | 65 | 1017.6 |
| 20260507104006 | 0 | 227 | 6.4 | 11.3 | 0.00 | 1.02 | 0.00 | 65 | 1015.2 |
| 20260507103505 | 0 | 230 | 4.8 | 12.9 | 0.00 | 1.02 | 0.00 | 66 | 1015.3 |
| 20260507103006 | 0 | 244 | 6.4 | 12.9 | 0.00 | 1.02 | 0.00 | 66 | 1015.3 |
| 20260507103003 | 0 | 244 | 4.8 | 12.9 | 0.00 | 1.02 | 0.00 | 66 | 1017.8 |
| 20260507102505 | 0 | 231 | 4.8 | 12.9 | 0.00 | 1.02 | 0.00 | 66 | 1015.3 |
| 20260507102007 | 0 | 256 | 4.8 | 11.3 | 0.00 | 1.02 | 0.00 | 66 | 1015.4 |
| 20260507101507 | 0 | 234 | 3.2 | 8.0 | 0.00 | 1.02 | 0.00 | 66 | 1017.9 |
| 20260507101006 | 0 | 263 | 4.8 | 12.9 | 0.00 | 1.02 | 0.00 | 66 | 1015.4 |
| 20260507100506 | 0 | 247 | 4.8 | 12.9 | 0.00 | 1.02 | 0.00 | 66 | 1015.4 |
| 20260507100005 | 0 | 240 | 4.8 | 14.5 | 0.00 | 1.02 | 0.00 | 67 | 1018.0 |
| 20260507095006 | 0 | 234 | 4.8 | 11.3 | 0.00 | 1.02 | 0.00 | 68 | 1015.5 |
| 20260507094604 | 0 | 243 | 4.8 | 12.9 | 0.00 | 1.02 | 0.00 | 68 | 1018.1 |
| 20260507094459 | 0 | 247 | 6.4 | 12.9 | 0.00 | 1.02 | 0.00 | 68 | 1015.5 |
| 20260507094006 | 0 | 234 | 8.0 | 12.9 | 0.00 | 1.02 | 0.00 | 69 | 1015.5 |
| 20260507093504 | 0 | 236 | 9.7 | 12.9 | 0.00 | 1.02 | 0.00 | 69 | 1015.5 |
| 20260507093005 | 0 | 216 | 4.8 | 12.9 | 0.00 | 1.02 | 0.00 | 69 | 1015.5 |
| 20260507093003 | 0 | 216 | 4.8 | 12.9 | 0.00 | 1.02 | 0.00 | 69 | 1018.1 |
| 20260507092506 | 0 | 228 | 8.0 | 12.9 | 0.00 | 1.02 | 0.00 | 69 | 1015.6 |
| 20260507092007 | 0 | 246 | 4.8 | 12.9 | 0.00 | 1.02 | 0.00 | 70 | 1015.7 |
| 20260507091506 | 0 | 238 | 6.4 | 12.9 | 0.00 | 1.02 | 0.00 | 70 | 1015.5 |
| 20260507091503 | 0 | 238 | 6.4 | 12.9 | 0.00 | 1.02 | 0.00 | 70 | 1018.2 |
| 20260507091006 | 0 | 242 | 6.4 | 11.3 | 0.00 | 1.02 | 0.00 | 70 | 1015.6 |
| 20260507090505 | 0 | 225 | 4.8 | 14.5 | 0.00 | 1.02 | 0.00 | 71 | 1015.6 |
| 20260507090007 | 0 | 238 | 8.0 | 14.5 | 0.00 | 1.02 | 0.00 | 71 | 1015.6 |
| 20260507085500 | 0 | 311 | 6.4 | 9.7 | 0.00 | 1.02 | 0.00 | 71 | 1015.7 |
| 20260507085007 | 0 | 215 | 6.4 | 14.5 | 0.00 | 1.02 | 0.00 | 71 | 1015.7 |
| 20260507084507 | 0 | 254 | 4.8 | 14.5 | 0.00 | 1.02 | 0.00 | 72 | 1018.5 |
| 20260507084006 | 0 | 238 | 8.0 | 14.5 | 0.00 | 1.02 | 0.00 | 73 | 1015.8 |
| 20260507083506 | 0 | 249 | 6.4 | 11.3 | 0.00 | 1.02 | 0.00 | 74 | 1015.7 |
| 20260507083006 | -1 | 219 | 4.8 | 11.3 | 0.00 | 1.02 | 0.00 | 75 | 1018.4 |
| 20260507082504 | -1 | 220 | 6.4 | 11.3 | 0.00 | 1.02 | 0.00 | 76 | 1015.7 |
| 20260507082006 | -1 | 234 | 6.4 | 11.3 | 0.00 | 1.02 | 0.00 | 76 | 1015.7 |
| 20260507081506 | -1 | 230 | 4.8 | 17.7 | 0.00 | 1.02 | 0.00 | 76 | 1018.4 |
| 20260507081006 | -1 | 235 | 6.4 | 17.7 | 0.00 | 1.02 | 0.00 | 76 | 1015.8 |
| 20260507080006 | -1 | 232 | 3.2 | 14.5 | 0.00 | 1.02 | 0.00 | 77 | 1015.9 |
| 20260507080004 | -1 | 232 | 3.2 | 14.5 | 0.00 | 1.02 | 0.00 | 77 | 1018.7 |
| 20260507075504 | -1 | 209 | 6.4 | 12.9 | 0.00 | 1.02 | 0.00 | 77 | 1015.9 |
| 20260507074506 | -1 | 271 | 4.8 | 12.9 | 0.00 | 1.02 | 0.00 | 77 | 1016.0 |
| 20260507074504 | -1 | 271 | 4.8 | 12.9 | 0.00 | 1.02 | 0.00 | 77 | 1018.8 |
| 20260507074007 | -1 | 266 | 4.8 | 9.7 | 0.00 | 1.02 | 0.00 | 78 | 1016.1 |
| 20260507073505 | -1 | 251 | 4.8 | 11.3 | 0.00 | 1.02 | 0.00 | 79 | 1016.2 |
| 20260507073006 | -1 | 234 | 4.8 | 11.3 | 0.00 | 1.02 | 0.00 | 80 | 1016.3 |
| 20260507073003 | -1 | 234 | 3.2 | 11.3 | 0.00 | 1.02 | 0.00 | 80 | 1019.0 |
| 20260507072507 | -1 | 254 | 4.8 | 9.7 | 0.00 | 1.02 | 0.00 | 80 | 1016.3 |
| 20260507071506 | -1 | 251 | 4.8 | 12.9 | 0.00 | 1.02 | 0.00 | 82 | 1016.2 |
| 20260507071504 | -1 | 251 | 4.8 | 12.9 | 0.00 | 1.02 | 0.00 | 82 | 1019.0 |
| 20260507071006 | -1 | 237 | 4.8 | 12.9 | 0.00 | 1.02 | 0.00 | 83 | 1016.3 |
| 20260507070506 | -1 | 223 | 4.8 | 12.9 | 0.00 | 1.02 | 0.00 | 83 | 1016.3 |
| 20260507070058 | -1 | 211 | 3.2 | 12.9 | 0.00 | 1.02 | 0.00 | 84 | 1019.1 |
| 20260507070012 | -1 | 209 | 4.8 | 12.9 | 0.00 | 1.02 | 0.00 | 84 | 1016.3 |
| 20260507070010 | -1 | 209 | 4.8 | 12.9 | 0.00 | 1.02 | 0.00 | 84 | 1019.1 |
| 20260507065506 | -1 | 242 | 3.2 | 9.7 | 0.00 | 1.02 | 0.00 | 84 | 1016.4 |
| 20260507065006 | -1 | 201 | 3.2 | 11.3 | 0.00 | 1.02 | 0.00 | 84 | 1016.5 |
| 20260507064505 | -1 | 189 | 6.4 | 14.5 | 0.00 | 1.02 | 0.00 | 85 | 1016.3 |
| 20260507064006 | -1 | 232 | 8.0 | 14.5 | 0.00 | 1.02 | 0.00 | 85 | 1016.4 |
| 20260507063006 | -1 | 223 | 6.4 | 12.9 | 0.00 | 1.02 | 0.00 | 86 | 1016.4 |
| 20260507063004 | -1 | 223 | 6.4 | 12.9 | 0.00 | 1.02 | 0.00 | 86 | 1019.2 |
| 20260507062005 | -1 | 258 | 6.4 | 12.9 | 0.00 | 1.02 | 0.00 | 86 | 1016.3 |
| 20260507061506 | -1 | 229 | 4.8 | 11.3 | 0.00 | 1.02 | 0.00 | 86 | 1016.5 |
| 20260507061504 | -1 | 229 | 4.8 | 11.3 | 0.00 | 1.02 | 0.00 | 86 | 1019.2 |
| 20260507061006 | -1 | 197 | 4.8 | 11.3 | 0.00 | 1.02 | 0.00 | 86 | 1016.5 |
| 20260507060007 | -1 | 219 | 4.8 | 16.1 | 0.00 | 1.02 | 0.00 | 87 | 1016.5 |
| 20260507060003 | -1 | 219 | 3.2 | 16.1 | 0.00 | 1.02 | 0.00 | 87 | 1019.3 |
| 20260507055504 | -1 | 229 | 8.0 | 16.1 | 0.00 | 1.02 | 1.02 | 87 | 1016.5 |
| 20260507055005 | -1 | 214 | 6.4 | 16.1 | 0.00 | 1.02 | 1.02 | 88 | 1016.5 |
| 20260507054506 | -1 | 234 | 3.2 | 9.7 | 0.00 | 1.02 | 1.02 | 87 | 1016.5 |
| 20260507054503 | -1 | 234 | 3.2 | 9.7 | 0.00 | 1.02 | 1.02 | 87 | 1019.3 |
| 20260507054005 | -1 | 199 | 3.2 | 8.0 | 0.00 | 1.02 | 1.02 | 87 | 1016.4 |
| 20260507053504 | -1 | 192 | 3.2 | 6.4 | 0.00 | 1.02 | 1.02 | 87 | 1016.4 |
| 20260507053006 | -1 | 215 | 3.2 | 9.7 | 0.00 | 1.02 | 1.02 | 87 | 1016.4 |
| 20260507052505 | -1 | 209 | 3.2 | 9.7 | 0.00 | 1.02 | 1.02 | 87 | 1016.3 |
| 20260507052002 | -1 | 202 | 3.2 | 12.9 | 0.00 | 1.02 | 1.02 | 87 | 1016.3 |
| 20260507051504 | -1 | 196 | 4.8 | 12.9 | 0.00 | 1.02 | 1.02 | 87 | 1016.3 |
| 20260507051005 | -1 | 183 | 4.8 | 11.3 | 0.00 | 1.02 | 1.02 | 87 | 1016.2 |
| 20260507050504 | -1 | 211 | 4.8 | 9.7 | 0.00 | 1.02 | 1.02 | 87 | 1016.3 |
| 20260507050002 | -1 | 190 | 3.2 | 9.7 | 0.00 | 1.02 | 1.02 | 87 | 1019.1 |
| 20260507045504 | -1 | 200 | 3.2 | 11.3 | 0.00 | 1.02 | 1.02 | 87 | 1016.4 |
| 20260507044507 | -1 | 204 | 3.2 | 12.9 | 0.00 | 1.02 | 1.02 | 87 | 1019.1 |
| 20260507043505 | -1 | 205 | 6.4 | 12.9 | 0.00 | 1.02 | 1.02 | 87 | 1016.3 |
| 20260507043003 | 0 | 214 | 4.8 | 11.3 | 0.00 | 1.02 | 1.02 | 86 | 1019.1 |
| 20260507042005 | 0 | 202 | 3.2 | 11.3 | 0.00 | 1.02 | 1.02 | 86 | 1016.3 |
| 20260507041503 | 0 | 197 | 4.8 | 14.5 | 0.00 | 1.02 | 1.02 | 86 | 1019.0 |
| 20260507040006 | 0 | 219 | 6.4 | 14.5 | 0.00 | 1.02 | 1.02 | 86 | 1016.3 |
| 20260507040002 | 0 | 219 | 4.8 | 14.5 | 0.00 | 1.02 | 1.02 | 86 | 1019.1 |
| 20260507035504 | 0 | 232 | 6.4 | 14.5 | 0.00 | 1.02 | 1.02 | 85 | 1016.3 |
| 20260507035005 | 0 | 245 | 9.7 | 14.5 | 0.00 | 1.02 | 1.02 | 86 | 1016.3 |
| 20260507034505 | 0 | 205 | 6.4 | 12.9 | 0.00 | 1.02 | 1.02 | 86 | 1016.2 |
| 20260507034502 | 0 | 205 | 4.8 | 12.9 | 0.00 | 1.02 | 1.02 | 86 | 1019.0 |
| 20260507034005 | 0 | 175 | 6.4 | 12.9 | 0.00 | 1.02 | 1.02 | 85 | 1016.2 |
| 20260507033002 | 0 | 210 | 6.4 | 12.9 | 0.00 | 1.02 | 1.02 | 85 | 1019.0 |
| 20260507032504 | 0 | 210 | 4.8 | 11.3 | 0.00 | 1.02 | 1.02 | 84 | 1016.3 |
| 20260507032005 | 0 | 218 | 4.8 | 12.9 | 0.00 | 1.02 | 1.02 | 84 | 1016.2 |
| 20260507031502 | 0 | 174 | 6.4 | 16.1 | 0.00 | 1.02 | 1.02 | 83 | 1019.0 |
| 20260507031005 | 0 | 198 | 6.4 | 16.1 | 0.00 | 1.02 | 1.02 | 83 | 1016.2 |
| 20260507030504 | 0 | 182 | 8.0 | 16.1 | 0.00 | 1.02 | 1.02 | 83 | 1016.2 |
| 20260507030005 | 0 | 180 | 8.0 | 16.1 | 0.00 | 1.02 | 1.02 | 83 | 1016.2 |
| 20260507025504 | 0 | 212 | 11.3 | 16.1 | 0.00 | 1.02 | 1.02 | 82 | 1016.1 |
| 20260507025004 | 0 | 184 | 6.4 | 14.5 | 0.00 | 1.02 | 1.02 | 82 | 1016.1 |
| 20260507024502 | 0 | 171 | 4.8 | 14.5 | 0.00 | 1.02 | 1.02 | 83 | 1018.9 |
| 20260507024005 | 0 | 173 | 8.0 | 9.7 | 0.00 | 1.02 | 1.02 | 84 | 1016.1 |
| 20260507023504 | 0 | 167 | 6.4 | 12.9 | 0.00 | 1.02 | 1.02 | 85 | 1016.1 |
| 20260507023002 | 0 | 153 | 1.6 | 4.8 | 0.00 | 1.02 | 1.02 | 86 | 1018.9 |
| 20260507022005 | 0 | 153 | 3.2 | 8.0 | 0.00 | 1.02 | 1.02 | 86 | 1016.1 |
| 20260507021503 | 0 | 153 | 4.8 | 9.7 | 0.00 | 1.02 | 1.02 | 85 | 1016.1 |
| 20260507021501 | 0 | 153 | 3.2 | 9.7 | 0.00 | 1.02 | 1.02 | 85 | 1018.9 |
| 20260507021005 | 0 | 149 | 1.6 | 8.0 | 0.00 | 1.02 | 1.02 | 84 | 1016.1 |
| 20260507020504 | 0 | 156 | 3.2 | 4.8 | 0.00 | 1.02 | 1.02 | 83 | 1016.1 |
| 20260507020006 | 0 | 156 | 3.2 | 4.8 | 0.00 | 1.02 | 1.02 | 82 | 1016.1 |
| 20260507020003 | 0 | 156 | 3.2 | 4.8 | 0.00 | 1.02 | 1.02 | 82 | 1018.8 |
| 20260507015504 | 0 | 156 | 3.2 | 4.8 | 0.00 | 1.02 | 1.02 | 81 | 1016.0 |
| 20260507015005 | 0 | 156 | 3.2 | 4.8 | 0.00 | 1.02 | 1.02 | 81 | 1016.0 |
| 20260507014505 | 0 | 156 | 3.2 | 8.0 | 0.00 | 1.02 | 1.02 | 81 | 1016.0 |
| 20260507014503 | 0 | 156 | 1.6 | 8.0 | 0.00 | 1.02 | 1.02 | 81 | 1018.7 |
| 20260507014005 | 0 | 156 | 3.2 | 9.7 | 0.00 | 1.02 | 1.02 | 80 | 1016.0 |
| 20260507013503 | 0 | 156 | 6.4 | 9.7 | 0.00 | 1.02 | 1.02 | 80 | 1016.1 |
| 20260507013006 | 0 | 156 | 3.2 | 8.0 | 0.00 | 1.02 | 1.02 | 79 | 1018.8 |
| 20260507012004 | 0 | 156 | 4.8 | 4.8 | 0.00 | 1.02 | 1.02 | 78 | 1016.1 |
| 20260507011504 | 1 | 156 | 1.6 | 8.0 | 0.00 | 1.02 | 1.02 | 77 | 1018.9 |
| 20260507010504 | 1 | 156 | 3.2 | 4.8 | 0.00 | 1.02 | 1.02 | 76 | 1016.0 |
| 20260507010008 | 1 | 156 | 1.6 | 8.0 | 0.00 | 1.02 | 1.02 | 75 | 1018.8 |
| 20260507010005 | 1 | 156 | 1.6 | 8.0 | 0.00 | 1.02 | 1.02 | 75 | 1016.0 |
| 20260507005504 | 1 | 156 | 3.2 | 8.0 | 0.00 | 1.02 | 1.02 | 75 | 1016.0 |
| 20260507005004 | 1 | 156 | 4.8 | 8.0 | 0.00 | 1.02 | 1.02 | 75 | 1016.1 |
| 20260507004505 | 1 | 156 | 3.2 | 8.0 | 0.00 | 1.02 | 1.02 | 75 | 1016.0 |
| 20260507004502 | 1 | 156 | 1.6 | 8.0 | 0.00 | 1.02 | 1.02 | 75 | 1018.8 |
| 20260507003504 | 1 | 155 | 4.8 | 9.7 | 0.00 | 1.02 | 1.02 | 75 | 1016.1 |
| 20260507003007 | 1 | 155 | 3.2 | 11.3 | 0.00 | 1.02 | 1.02 | 74 | 1016.0 |
| 20260507003002 | 1 | 155 | 3.2 | 11.3 | 0.00 | 1.02 | 1.02 | 74 | 1018.8 |
| 20260507002505 | 1 | 155 | 6.4 | 11.3 | 0.00 | 1.02 | 1.02 | 74 | 1016.0 |
| 20260507002005 | 1 | 140 | 8.0 | 11.3 | 0.00 | 1.02 | 1.02 | 73 | 1016.0 |
| 20260507001504 | 1 | 159 | 6.4 | 9.7 | 0.00 | 1.02 | 1.02 | 73 | 1016.0 |
| 20260507001501 | 1 | 159 | 6.4 | 9.7 | 0.00 | 1.02 | 1.02 | 73 | 1018.8 |
| 20260507001004 | 1 | 159 | 4.8 | 9.7 | 0.00 | 1.02 | 1.02 | 74 | 1016.1 |
| 20260507000503 | 1 | 167 | 8.0 | 9.7 | 0.00 | 1.02 | 1.02 | 73 | 1016.1 |
| 20260507000003 | 1 | 150 | 6.4 | 9.7 | 0.00 | 1.02 | 1.02 | 71 | 1018.9 |
| 20260506235504 | 1 | 128 | 4.8 | 8.0 | 0.00 | 1.14 | 1.02 | 70 | 1016.1 |
| 20260506235005 | 1 | 188 | 4.8 | 9.7 | 0.00 | 1.14 | 1.02 | 71 | 1016.2 |
| 20260506234503 | 1 | 164 | 4.8 | 8.0 | 0.00 | 1.14 | 1.02 | 70 | 1016.2 |
| 20260506234005 | 1 | 138 | 3.2 | 6.4 | 0.00 | 1.14 | 1.02 | 70 | 1016.2 |
| 20260506233005 | 2 | 138 | 3.2 | 4.8 | 0.00 | 1.14 | 1.02 | 71 | 1016.3 |
| 20260506233003 | 2 | 138 | 1.6 | 4.8 | 0.00 | 1.14 | 1.02 | 71 | 1019.0 |
| 20260506232504 | 1 | 138 | 1.6 | 6.4 | 0.00 | 1.14 | 1.02 | 69 | 1016.3 |
| 20260506232005 | 2 | 138 | 3.2 | 6.4 | 0.00 | 1.14 | 1.02 | 68 | 1016.3 |
| 20260506231504 | 2 | 138 | 3.2 | 6.4 | 0.00 | 1.14 | 1.02 | 70 | 1016.3 |
| 20260506231502 | 2 | 138 | 1.6 | 6.4 | 0.00 | 1.14 | 1.02 | 70 | 1019.0 |
| 20260506231005 | 1 | 179 | 4.8 | 8.0 | 0.00 | 1.14 | 1.02 | 69 | 1016.3 |
| 20260506230504 | 1 | 236 | 1.6 | 8.0 | 0.00 | 1.14 | 1.02 | 70 | 1016.3 |
| 20260506230005 | 1 | 111 | 0.0 | 4.8 | 0.00 | 1.14 | 1.02 | 73 | 1016.3 |
| 20260506230002 | 1 | 111 | 0.0 | 4.8 | 0.00 | 1.14 | 1.02 | 73 | 1019.1 |
| 20260506225504 | 1 | 111 | 1.6 | 4.8 | 0.00 | 1.14 | 1.02 | 75 | 1016.4 |
| 20260506225005 | 0 | 111 | 1.6 | 6.4 | 0.00 | 1.14 | 1.02 | 77 | 1016.4 |
| 20260506224511 | 0 | 111 | 3.2 | 6.4 | 0.00 | 1.14 | 1.02 | 77 | 1019.0 |
| 20260506224504 | 0 | 111 | 4.8 | 6.4 | 0.00 | 1.14 | 1.02 | 77 | 1016.3 |
| 20260506224005 | 0 | 111 | 1.6 | 4.8 | 0.00 | 1.14 | 1.02 | 78 | 1016.4 |
| 20260506223006 | 0 | 111 | 4.8 | 9.7 | 0.00 | 1.14 | 1.02 | 77 | 1016.5 |
| 20260506223002 | 0 | 111 | 3.2 | 9.7 | 0.00 | 1.14 | 1.02 | 77 | 1019.2 |
| 20260506222503 | 0 | 111 | 1.6 | 6.4 | 0.00 | 1.14 | 1.02 | 76 | 1016.6 |
| 20260506222005 | 1 | 111 | 3.2 | 4.8 | 0.00 | 1.14 | 1.02 | 73 | 1016.6 |
| 20260506221504 | 1 | 111 | 3.2 | 4.8 | 0.00 | 1.14 | 1.02 | 75 | 1016.6 |
| 20260506221502 | 1 | 111 | 1.6 | 4.8 | 0.00 | 1.14 | 1.02 | 75 | 1019.3 |
| 20260506221005 | 1 | 111 | 1.6 | 4.8 | 0.00 | 1.14 | 1.02 | 77 | 1016.6 |
| 20260506220504 | 0 | 111 | 1.6 | 4.8 | 0.00 | 1.14 | 1.02 | 77 | 1016.6 |
| 20260506220005 | 0 | 111 | 1.6 | 4.8 | 0.00 | 1.14 | 1.02 | 77 | 1016.6 |
| 20260506220003 | 0 | 111 | 0.0 | 4.8 | 0.00 | 1.14 | 1.02 | 77 | 1019.3 |
| 20260506215505 | 0 | 111 | 3.2 | 4.8 | 0.00 | 1.17 | 1.02 | 76 | 1016.7 |
| 20260506215005 | 0 | 111 | 3.2 | 6.4 | 0.00 | 1.17 | 1.02 | 75 | 1016.7 |
| 20260506214504 | 1 | 111 | 4.8 | 6.4 | 0.00 | 1.17 | 1.02 | 73 | 1016.7 |
| 20260506214502 | 1 | 111 | 3.2 | 6.4 | 0.00 | 1.17 | 1.02 | 73 | 1019.4 |
| 20260506214004 | 1 | 111 | 3.2 | 6.4 | 0.00 | 1.17 | 1.02 | 70 | 1017.0 |
| 20260506213505 | 2 | 23 | 1.6 | 4.8 | 0.00 | 1.17 | 1.02 | 71 | 1017.0 |